Weather in Panormos

Greece     35°25′02″N   24°41′28″E
temp.,
°C
wind,
m/s
gust,
m/s
humid.,
%
clouds,
%
prec.,
mm/h
press.,
hPa
HPBL,
m
18 april, sun
sun1800:00+24sse6737100 0.0 101050
03:00+22wsw5850100 0.0 1011179
06:00+19se5566100 0.0 101240
09:00+21s226095 0.0 101224
12:00+19wnw6878100 0.0 1014211
15:00+18wnw457799 0.0 1015176
18:00+19wsw237395 0.0 1015106
21:00+18ne2272100 0.0 101513
19 april, mon
mon1900:00+19e4465100 0.0 101434
03:00+19ese3561100 0.0 101343
06:00+16wnw8987100 0.0 1014333
09:00+17w4674100 0.2 1015222
12:00+17wnw997754 0.0 1015489
15:00+16wnw9127787 0.1 1015638
18:00+16wnw9117497 0.0 1014721
21:00+15w912732 0.0 1016830
20 april, tue
tue2000:00+14w912743 0.0 1016872
03:00+14w911710 0.0 1015794
06:00+14w9127174 0.0 1015840
09:00+15w8116712 0.0 1017872
12:00+16wnw79640 0.0 1017783
15:00+16wnw910700 0.0 1017711
18:00+16wnw79680 0.0 1017719
21:00+14w78741 0.0 1018470
21 april, wed
wed2100:00+14w79700 0.0 1019480
03:00+14w79690 0.0 1018543
06:00+14w78715 0.0 1018573
09:00+15w676624 0.0 1019701
12:00+16wnw776226 0.0 1020726
15:00+16wnw676497 0.0 1020605
18:00+16wnw566676 0.0 1020580
21:00+14w4574100 0.0 1021394
22 april, thu
thu2200:00+14wsw23643 0.0 1021178
03:00+15sw13481 0.0 1020177
06:00+14s12465 0.0 1020149
09:00+16w12475 0.0 1021244
12:00+17nw22481 0.0 1022342
15:00+17n225412 0.0 1021365
18:00+17e22562 0.0 1020294
21:00+16se22665 0.0 102142